sat.trackr.live / text

‹ back to catalog

STARLINK-30984

NORAD 58480 · 2023-186H

PAYLOAD ACTIVE UNKNOWN

§ Identity

Operator
Country
US
Launch date
2023-12-03
Launch site
AFETR
Launch vehicle
Mass (kg)
RCS (m²)

Purposes: comms

External: N2YO · Heavens-Above · Gunter

§ Orbital elements

Epoch: 2026-09-19T17:05:34.455840Z

Period
94.27 min
Inclination
43.0044°
Eccentricity
0.0000978
Mean motion
15.27576163 rev/d
Perigee alt
482.4 km
Apogee alt
483.7 km
Semi-major
6,861.2 km
B*
6.1516e-6
RAAN
47.5461°
Arg perigee
275.4852°
Mean anomaly
84.5888°
Rev number
15,557

§ Raw data

STARLINK-309841 58480U 23186H   26262.71220435 -.00000093  00000+0  61516-5 0  99932 58480  43.0044  47.5461 0000978 275.4852  84.5888 15.27576163155573

JSON: /api/v1/satellites/58480 · /tle

For live sub-satellite position, see the globe view (requires WebGL).

§ Visibility from observer

Set your observer location to see the next 7 days of passes ≥ 10°. The values pass through the URL so the page stays shareable.

No JS? Fill the form by hand. The geolocation button needs JavaScript.